[[{"header":{"parameterUnit":"m.s-1","parameterCategory":1,"la1":30.2991,"la2":30.254,"lo1":-89.0895,"lo2":-89.0444,"dy":0.0017,"dx":0.0017,"nx":28,"ny":28,"refTime":"2025-08-27T21:00:00:Z","depth":0,"parameterNumber":2,"parameterNumberName":"U-component_of_WINDS"},"data":[0,0,0,0,0,0,0,0,0,0,0,0,0,0,0,0,0,0,0,0,0,0,0,0,0,0,0,0,0,0,0,0,0,0,0,0,0,0,0,0,0,0,0,0,0,0,0,0,0,0,0,0,0,0,0,0,0,0,-0.1397,-0.1396,0,-0.1377,-0.1377,-0.1377,-0.1357,-0.1356,-0.1356,-0.1356,-0.1336,-0.1335,-0.1335,0,0,0,0,0,0,0,0,0,0,0,0,0,-0.1418,-0.1417,-0.1397,-0.1396,-0.1396,-0.1377,-0.1377,-0.1376,-0.1357,-0.1356,-0.1356,-0.1356,-0.1336,-0.1336,-0.1335,0,0,0,0,0,0,0,0,0,0,0,0,0,-0.1404,-0.1417,-0.1397,-0.1384,-0.1383,-0.1377,-0.1377,-0.1376,-0.1357,-0.1356,-0.1356,-0.1355,-0.1336,-0.1336,-0.1335,-0.1341,0,0,-0.1334,-0.1334,0,0,0,0,0,0,0,0,-0.1405,-0.1404,-0.1386,-0.1385,-0.1383,-0.1369,-0.1377,-0.1364,-0.1357,-0.1367,-0.1356,-0.1355,-0.1347,-0.1346,-0.1343,-0.134,-0.1339,-0.1334,-0.1334,-0.1333,-0.1333,0,0,0,0,0,0,0,-0.1406,-0.1404,-0.1389,-0.1386,-0.1384,-0.1379,-0.1377,-0.1374,-0.1359,-0.1366,-0.1364,-0.1362,-0.1346,-0.1343,-0.1342,-0.1339,-0.1334,-0.1333,-0.1333,-0.1333,-0.134,-0.134,0,0,0,0,0,0,-0.1409,-0.1405,-0.139,-0.1388,-0.1393,-0.1379,-0.1377,-0.1374,-0.1359,-0.1357,-0.1362,-0.1361,-0.1344,-0.1343,-0.1342,-0.1348,-0.1333,-0.1333,-0.1333,-0.1339,-0.134,-0.134,0,0,0,0,0,0,-0.1409,-0.1408,-0.139,-0.1396,-0.1394,-0.1379,-0.1376,-0.1374,-0.1371,-0.1357,-0.1354,-0.1362,-0.1344,-0.1342,-0.1341,-0.1347,-0.1333,-0.1332,-0.1339,-0.1339,-0.134,-0.136,0,0,0,0,0,0,-0.141,-0.1408,-0.141,-0.1397,-0.1394,-0.139,-0.1377,-0.1374,-0.137,-0.1368,-0.1356,-0.1354,-0.1343,-0.1342,-0.1341,-0.1346,-0.1332,-0.1338,-0.1339,-0.134,-0.1358,-0.1361,-0.1363,0,0,0,0,0,-0.1411,-0.1416,-0.141,-0.1408,-0.1396,-0.1391,-0.1389,-0.1377,-0.1371,-0.1373,-0.1364,-0.1354,-0.1346,-0.1342,-0.134,-0.1346,-0.1338,-0.1339,-0.134,-0.1357,-0.136,-0.1363,0,0,0,0,0,0,-0.1431,-0.1414,-0.1407,-0.1408,-0.1401,-0.1387,-0.1389,-0.1381,-0.1375,-0.1374,-0.1359,-0.1357,-0.1358,-0.1351,-0.1347,-0.135,-0.1341,-0.1341,-0.1355,-0.1357,-0.136,-0.1361,-0.1332,0,0,0,0,0,-0.1435,-0.1432,-0.1418,-0.142,-0.1417,-0.1404,-0.1401,-0.1393,-0.1385,-0.1382,-0.1373,-0.1365,-0.1361,-0.1359,-0.1354,-0.1357,-0.1355,-0.136,-0.1362,-0.1364,-0.1365,-0.1367,-0.1369,-0.1343,-0.1343,-0.1343,0,0,-0.1444,-0.1435,-0.1434,-0.1424,-0.1417,-0.1415,-0.1401,-0.1399,-0.1398,-0.1381,-0.138,-0.1373,-0.1364,-0.1365,-0.1365,-0.136,-0.1372,-0.1365,-0.1367,-0.1367,-0.1368,-0.1371,-0.1373,-0.1344,-0.1344,-0.1344,0,0,-0.146,-0.1452,-0.1454,-0.1448,-0.1438,-0.1429,-0.1429,-0.1417,-0.1412,-0.141,-0.1398,-0.1395,-0.1388,-0.1383,-0.1379,-0.1392,-0.1384,-0.1391,-0.1403,-0.1405,-0.1407,-0.1409,-0.1415,-0.1417,-0.1392,-0.1392,-0.1392,0,-0.1473,-0.1469,-0.1456,-0.1455,-0.1451,-0.1436,-0.1437,-0.1432,-0.1421,-0.1419,-0.1413,-0.1404,-0.1397,-0.1397,-0.14,-0.1397,-0.1398,-0.1393,-0.1408,-0.141,-0.1411,-0.1417,-0.1419,-0.1393,-0.1393,-0.1393,-0.1393,0,-0.1486,-0.1483,-0.1485,-0.1476,-0.1472,-0.1472,-0.1459,-0.1457,-0.1449,-0.1441,-0.144,-0.143,-0.1424,-0.1423,-0.1415,-0.1422,-0.1419,-0.1411,-0.1401,-0.1415,-0.142,-0.1422,-0.1395,-0.1394,-0.1394,-0.1394,0,0,-0.1514,-0.1497,-0.1498,-0.1493,-0.1481,-0.1479,-0.1479,-0.1472,-0.1471,-0.1464,-0.1464,-0.1458,-0.1451,-0.1446,-0.1437,-0.1439,-0.1451,-0.1431,-0.143,-0.1436,-0.146,-0.1467,-0.1469,-0.1445,-0.1445,-0.1446,-0.1461,0,-0.1529,-0.1527,-0.1515,-0.1517,-0.1515,-0.1501,-0.15,-0.1493,-0.1485,-0.1482,-0.1474,-0.147,-0.146,-0.1458,-0.1458,-0.145,-0.1456,-0.1448,-0.1445,-0.1445,-0.1449,-0.1471,-0.1479,-0.1493,-0.1462,-0.1463,-0.1463,0,-0.1546,-0.154,-0.1542,-0.153,-0.1528,-0.1529,-0.1522,-0.1519,-0.1511,-0.1505,-0.15,-0.149,-0.1489,-0.1479,-0.1478,-0.1473,-0.1471,-0.1466,-0.1466,-0.1466,-0.1456,-0.1473,-0.1498,-0.15,-0.1465,-0.1465,-0.1465,0,-0.1568,-0.156,-0.156,-0.1557,-0.1543,-0.1543,-0.1537,-0.1528,-0.1525,-0.1519,-0.1517,-0.1511,-0.1508,-0.1504,-0.1493,-0.1486,-0.1493,-0.1482,-0.1489,-0.1489,-0.1492,-0.1492,-0.1518,-0.1489,-0.1489,-0.1489,-0.1489,0,-0.1586,-0.1588,-0.157,-0.157,-0.1572,-0.1558,-0.156,-0.1553,-0.1545,-0.1544,-0.1531,-0.153,-0.1514,-0.1512,-0.1503,-0.1504,-0.1502,-0.1498,-0.1496,-0.15,-0.1501,-0.1499,-0.1498,-0.1489,-0.1489,-0.1489,-0.1489,0,-0.1611,-0.1599,-0.1598,-0.1585,-0.1582,-0.1584,-0.1572,-0.1572,-0.1563,-0.1562,-0.1561,-0.1548,-0.1544,-0.1532,-0.1525,-0.1519,-0.1523,-0.1518,-0.1526,-0.1525,-0.1533,-0.1533,-0.156,-0.1563,-0.1531,-0.1531,-0.1532,0,-0.1624,-0.1625,-0.1612,-0.161,-0.1605,-0.1602,-0.1599,-0.1585,-0.1582,-0.1573,-0.1574,-0.1569,-0.1565,-0.156,-0.155,-0.1545,-0.154,-0.155,-0.1539,-0.1543,-0.1541,-0.1542,-0.1542,-0.1552,-0.1553,-0.1553,-0.1553,0,-0.1648,-0.1642,-0.1638,-0.1632,-0.1629,-0.1624,-0.1617,-0.1617,-0.1601,-0.1599,-0.1595,-0.1592,-0.1585,-0.1581,-0.1574,-0.1568,-0.1559,-0.1556,-0.1558,-0.1563,-0.1568,-0.1566,-0.1534,-0.1556,-0.1556,-0.1556,-0.1556,-0.1555,-0.1669,-0.1669,-0.166,-0.1656,-0.165,-0.1644,-0.1644,-0.1635,-0.1632,-0.1625,-0.1617,-0.1614,-0.1606,-0.1596,-0.1591,-0.1588,-0.1583,-0.1585,-0.1586,-0.1587,-0.1589,-0.1567,-0.1587,-0.1587,-0.1587,-0.1587,-0.1587,0,-0.1693,-0.1687,-0.1683,-0.1675,-0.1672,-0.1662,-0.1655,-0.1653,-0.1651,-0.1644,-0.164,-0.1636,-0.1631,-0.1621,-0.1615,-0.1616,-0.1611,-0.1615,-0.1615,-0.1614,-0.1594,-0.1593,-0.1619,-0.1619,-0.1619,-0.1619,-0.1619,-0.1619,-0.1706,-0.1707,-0.17,-0.1697,-0.169,-0.1688,-0.1685,-0.168,-0.1674,-0.167,-0.1666,-0.1659,-0.165,-0.1645,-0.164,-0.1637,-0.1637,-0.1642,-0.1638,-0.1619,-0.1616,-0.1613,-0.1613,-0.1642,-0.1642,-0.1659,-0.1659,-0.1659]},{"header":{"parameterUnit":"m.s-1","parameterCategory":1,"la1":30.2991,"la2":30.254,"lo1":-89.0895,"lo2":-89.0444,"dy":0.0017,"dx":0.0017,"nx":28,"ny":28,"refTime":"2025-08-27T21:00:00:Z","depth":0,"parameterNumber":3,"parameterNumberName":"V-component_of_WINDS"},"data":[0,0,0,0,0,0,0,0,0,0,0,0,0,0,0,0,0,0,0,0,0,0,0,0,0,0,0,0,0,0,0,0,0,0,0,0,0,0,0,0,0,0,0,0,0,0,0,0,0,0,0,0,0,0,0,0,0,0,1.8248,1.8247,0,1.8172,1.8172,1.8171,1.8109,1.8109,1.8108,1.8107,1.8026,1.8024,1.8023,0,0,0,0,0,0,0,0,0,0,0,0,0,1.8335,1.8334,1.8248,1.8247,1.8246,1.8173,1.8172,1.8171,1.8109,1.8109,1.8108,1.8107,1.8026,1.8024,1.8023,0,0,0,0,0,0,0,0,0,0,0,0,0,1.8282,1.8333,1.8248,1.8207,1.8202,1.8173,1.8172,1.817,1.8109,1.8109,1.8108,1.8107,1.8027,1.8025,1.8022,1.8026,0,0,1.8015,1.8014,0,0,0,0,0,0,0,0,1.8285,1.8279,1.8214,1.821,1.8205,1.8149,1.8172,1.8122,1.811,1.8145,1.8107,1.8106,1.8067,1.8062,1.8049,1.8023,1.8019,1.8015,1.8013,1.8012,1.8012,0,0,0,0,0,0,0,1.8289,1.8282,1.8218,1.8213,1.8207,1.8191,1.8182,1.8162,1.8112,1.8141,1.8137,1.8129,1.8065,1.8052,1.8047,1.8018,1.8015,1.8013,1.8011,1.801,1.7989,1.799,0,0,0,0,0,0,1.8299,1.8285,1.822,1.8216,1.8243,1.819,1.818,1.8168,1.8112,1.8103,1.813,1.8126,1.8056,1.805,1.8044,1.8044,1.8012,1.801,1.8009,1.7988,1.7989,1.799,0,0,0,0,0,0,1.8302,1.8294,1.8223,1.8249,1.8239,1.8189,1.8176,1.8167,1.8154,1.8103,1.8094,1.8126,1.8055,1.8047,1.8031,1.804,1.8009,1.8007,1.7987,1.7988,1.799,1.8045,0,0,0,0,0,0,1.8304,1.8295,1.8298,1.825,1.8238,1.8213,1.8177,1.8166,1.8151,1.8145,1.8097,1.8089,1.8054,1.8035,1.8029,1.8036,1.8005,1.7986,1.7988,1.7989,1.8042,1.8048,1.8053,0,0,0,0,0,1.8308,1.8315,1.8298,1.829,1.824,1.8214,1.8207,1.8168,1.8152,1.8153,1.812,1.809,1.8041,1.8034,1.8026,1.8033,1.7985,1.7987,1.7989,1.804,1.8047,1.8053,0,0,0,0,0,0,1.8364,1.8308,1.8288,1.8281,1.8253,1.8204,1.8204,1.8177,1.8152,1.8148,1.81,1.809,1.8078,1.8054,1.8048,1.8034,1.8009,1.801,1.805,1.8056,1.8062,1.8067,1.8003,0,0,0,0,0,1.8376,1.8362,1.8313,1.8311,1.8298,1.8254,1.8241,1.8214,1.8182,1.817,1.8136,1.8105,1.8082,1.8068,1.8044,1.8039,1.8026,1.804,1.8045,1.805,1.8051,1.8044,1.8049,1.7996,1.7996,1.7996,0,0,1.84,1.8368,1.8361,1.8322,1.8297,1.8281,1.8244,1.8229,1.8217,1.8167,1.815,1.8124,1.8086,1.8075,1.8068,1.8054,1.8063,1.8052,1.8057,1.8054,1.8047,1.8052,1.8056,1.7998,1.7998,1.7997,0,0,1.8435,1.841,1.8406,1.8382,1.8345,1.8315,1.8314,1.8269,1.825,1.8232,1.8194,1.8178,1.814,1.8114,1.8097,1.8122,1.8093,1.8116,1.8144,1.8139,1.8143,1.8146,1.8154,1.8158,1.8117,1.8117,1.8117,0,1.8469,1.8446,1.8406,1.8394,1.8377,1.8333,1.8326,1.8305,1.8261,1.825,1.8236,1.8187,1.8158,1.814,1.8146,1.8134,1.813,1.8121,1.8146,1.8149,1.8151,1.8158,1.8161,1.812,1.812,1.8119,1.8119,0,1.8489,1.8473,1.8473,1.8434,1.8417,1.8408,1.8366,1.8353,1.8328,1.8299,1.8281,1.8245,1.8213,1.8207,1.8181,1.8185,1.8177,1.8155,1.8129,1.816,1.8165,1.8168,1.8124,1.8123,1.8122,1.8121,0,0,1.8557,1.8496,1.8497,1.8478,1.8434,1.842,1.8409,1.8379,1.8368,1.834,1.8328,1.8297,1.8276,1.8256,1.8226,1.8222,1.8243,1.82,1.8198,1.8208,1.8243,1.8259,1.8263,1.8224,1.8225,1.8225,1.8246,0,1.8584,1.8562,1.8526,1.8515,1.8499,1.8457,1.8446,1.8417,1.839,1.8372,1.8341,1.832,1.8294,1.8282,1.8275,1.8242,1.8249,1.824,1.821,1.821,1.822,1.8266,1.8283,1.8305,1.8248,1.8248,1.8248,0,1.8613,1.8589,1.8576,1.8533,1.8525,1.8516,1.8485,1.8469,1.8434,1.8415,1.8393,1.8361,1.8345,1.8322,1.8298,1.8293,1.8278,1.826,1.826,1.8255,1.823,1.8261,1.8311,1.8314,1.8252,1.8251,1.8251,0,1.8663,1.8626,1.8614,1.8599,1.8549,1.8544,1.8522,1.8487,1.8471,1.8444,1.8432,1.8403,1.8387,1.8364,1.8325,1.8312,1.8305,1.8279,1.8286,1.8288,1.8286,1.8286,1.8333,1.8279,1.8279,1.8279,1.8279,0,1.8696,1.869,1.8636,1.8628,1.8619,1.8578,1.857,1.8544,1.8513,1.8498,1.846,1.8446,1.8396,1.8377,1.8346,1.833,1.8323,1.8305,1.8297,1.8308,1.831,1.8297,1.8294,1.828,1.828,1.8279,1.8279,0,1.875,1.8713,1.8697,1.8651,1.8639,1.8634,1.8594,1.8584,1.8555,1.8537,1.853,1.8484,1.8459,1.8418,1.8381,1.836,1.8349,1.8336,1.8361,1.8356,1.8365,1.8364,1.8404,1.8406,1.8353,1.8353,1.8354,0,1.8773,1.8768,1.8721,1.8709,1.8689,1.8671,1.8654,1.8613,1.8597,1.8558,1.8552,1.8524,1.85,1.8461,1.8423,1.8394,1.8379,1.8395,1.8374,1.8386,1.8378,1.8378,1.8377,1.84,1.84,1.8401,1.8402,0,1.8818,1.88,1.8779,1.8752,1.8734,1.871,1.8684,1.8676,1.8628,1.8612,1.8587,1.8568,1.853,1.8502,1.8468,1.8444,1.8414,1.8409,1.8409,1.8419,1.8434,1.8425,1.8373,1.8408,1.8407,1.8407,1.8406,1.8406,1.8856,1.8849,1.8815,1.8792,1.8769,1.8745,1.8733,1.8703,1.8682,1.8649,1.8625,1.8601,1.8566,1.8517,1.8494,1.8474,1.846,1.8461,1.846,1.8461,1.8465,1.8438,1.8467,1.8467,1.8467,1.8467,1.8466,0,1.8898,1.8874,1.8854,1.8819,1.8801,1.8777,1.8746,1.8732,1.8712,1.8683,1.866,1.863,1.8603,1.8563,1.8532,1.8523,1.8509,1.8517,1.8516,1.8511,1.8479,1.8481,1.8529,1.8529,1.8529,1.8529,1.8529,1.8529,1.8917,1.8903,1.8881,1.8855,1.8831,1.8808,1.8792,1.877,1.8746,1.8715,1.8693,1.8668,1.8633,1.86,1.8573,1.8562,1.8552,1.8564,1.8548,1.8519,1.8513,1.8508,1.851,1.8562,1.8562,1.8582,1.8582,1.8582]}]]